owner,sensor,date,latitude,longitude,vertical_datum,direction_of_sea_water_velocity,sea_water_speed,upward_sea_water_velocity,qcFlag 
TABS,ioos:station:wmo:42048:1,2006-09-01T00:00:00Z,27.9396,-96.8429,2.0,17.69209249,13.65586321,-99999.0,'11111222,11111222,99999999' 
TABS,ioos:station:wmo:42048:1,2006-09-01T00:30:00Z,27.9396,-96.8429,2.0,18.9959871,10.66054877,-99999.0,'11111222,11111222,99999999' 
TABS,ioos:station:wmo:42048:1,2006-09-01T01:00:00Z,27.9396,-96.8429,2.0,35.67971358,7.509620496,-99999.0,'11133222,11111222,99999999' 
TABS,ioos:station:wmo:42048:1,2006-09-01T01:30:00Z,27.9396,-96.8429,2.0,25.27787358,12.34173813,-99999.0,'11111222,11111222,99999999' 
TABS,ioos:station:wmo:42048:1,2006-09-01T02:00:00Z,27.9396,-96.8429,2.0,21.34489407,11.64903859,-99999.0,'11111222,11111222,99999999' 
TABS,ioos:station:wmo:42048:1,2006-09-01T02:30:00Z,27.9396,-96.8429,2.0,33.71599062,12.32266611,-99999.0,'11111222,11111222,99999999' 
TABS,ioos:station:wmo:42048:1,2006-09-01T03:00:00Z,27.9396,-96.8429,2.0,26.18157942,11.35500771,-99999.0,'11111222,11111222,99999999' 
TABS,ioos:station:wmo:42048:1,2006-09-01T03:30:00Z,27.9396,-96.8429,2.0,39.73541062,11.48235603,-99999.0,'11111222,11111222,99999999' 
TABS,ioos:station:wmo:42048:1,2006-09-01T04:00:00Z,27.9396,-96.8429,2.0,33.94518482,12.46423684,-99999.0,'11111222,11111222,99999999' 
TABS,ioos:station:wmo:42048:1,2006-09-01T04:30:00Z,27.9396,-96.8429,2.0,38.73115608,12.56262711,-99999.0,'11111222,11111222,99999999' 
TABS,ioos:station:wmo:42048:1,2006-09-01T05:00:00Z,27.9396,-96.8429,2.0,38.88682696,13.01406163,-99999.0,'11111222,11111222,99999999' 
TABS,ioos:station:wmo:42048:1,2006-09-01T05:30:00Z,27.9396,-96.8429,2.0,49.3988003,13.09175313,-99999.0,'11111222,11111222,99999999' 
TABS,ioos:station:wmo:42048:1,2006-09-01T06:00:00Z,27.9396,-96.8429,2.0,43.99010054,14.4413642,-99999.0,'11111222,11111222,99999999' 
TABS,ioos:station:wmo:42048:1,2006-09-01T06:30:00Z,27.9396,-96.8429,2.0,47.47373908,8.847078614,-99999.0,'11133222,11111222,99999999' 
TABS,ioos:station:wmo:42048:1,2006-09-01T07:00:00Z,27.9396,-96.8429,2.0,56.28855221,14.81049628,-99999.0,'11111222,11111222,99999999' 
TABS,ioos:station:wmo:42048:1,2006-09-01T07:30:00Z,27.9396,-96.8429,2.0,49.06374186,15.7656906,-99999.0,'11111222,11111222,99999999' 
TABS,ioos:station:wmo:42048:1,2006-09-01T08:00:00Z,27.9396,-96.8429,2.0,44.90882175,13.31483759,-99999.0,'11111222,11111222,99999999' 
TABS,ioos:station:wmo:42048:1,2006-09-01T08:30:00Z,27.9396,-96.8429,2.0,46.79923625,15.09002651,-99999.0,'11111222,11111222,99999999' 
TABS,ioos:station:wmo:42048:1,2006-09-01T09:00:00Z,27.9396,-96.8429,2.0,52.30584768,15.56961143,-99999.0,'11111222,11111222,99999999' 
TABS,ioos:station:wmo:42048:1,2006-09-01T09:30:00Z,27.9396,-96.8429,2.0,50.65679956,15.71063652,-99999.0,'11111222,11111222,99999999' 
TABS,ioos:station:wmo:42048:1,2006-09-01T10:00:00Z,27.9396,-96.8429,2.0,55.23681164,14.36370774,-99999.0,'11111222,11111222,99999999' 
TABS,ioos:station:wmo:42048:1,2006-09-01T10:30:00Z,27.9396,-96.8429,2.0,57.34627985,15.64233039,-99999.0,'11111222,11111222,99999999' 
TABS,ioos:station:wmo:42048:1,2006-09-01T11:00:00Z,27.9396,-96.8429,2.0,59.11512689,12.46795893,-99999.0,'11111222,11111222,99999999' 
TABS,ioos:station:wmo:42048:1,2006-09-01T11:30:00Z,27.9396,-96.8429,2.0,58.63468814,15.65820552,-99999.0,'11111222,11111222,99999999' 
TABS,ioos:station:wmo:42048:1,2006-09-01T12:00:00Z,27.9396,-96.8429,2.0,59.79683287,13.95435416,-99999.0,'11111222,11111222,99999999' 
TABS,ioos:station:wmo:42048:1,2006-09-01T12:30:00Z,27.9396,-96.8429,2.0,58.87360488,13.88972642,-99999.0,'11111222,11111222,99999999' 
TABS,ioos:station:wmo:42048:1,2006-09-01T13:00:00Z,27.9396,-96.8429,2.0,61.84688067,14.20001408,-99999.0,'11111222,11111222,99999999' 
TABS,ioos:station:wmo:42048:1,2006-09-01T13:30:00Z,27.9396,-96.8429,2.0,57.17260207,14.55420901,-99999.0,'11111222,11111222,99999999' 
TABS,ioos:station:wmo:42048:1,2006-09-01T14:00:00Z,27.9396,-96.8429,2.0,59.40979741,14.20724463,-99999.0,'11111222,11111222,99999999' 
TABS,ioos:station:wmo:42048:1,2006-09-01T14:30:00Z,27.9396,-96.8429,2.0,60.21290756,13.44660924,-99999.0,'11111222,11111222,99999999' 
TABS,ioos:station:wmo:42048:1,2006-09-01T15:00:00Z,27.9396,-96.8429,2.0,68.80599308,12.61313601,-99999.0,'11111222,11111222,99999999' 
TABS,ioos:station:wmo:42048:1,2006-09-01T15:30:00Z,27.9396,-96.8429,2.0,63.18751509,10.35309133,-99999.0,'11111222,11111222,99999999' 
TABS,ioos:station:wmo:42048:1,2006-09-01T16:00:00Z,27.9396,-96.8429,2.0,71.06514497,9.060270415,-99999.0,'11133222,11111222,99999999' 
TABS,ioos:station:wmo:42048:1,2006-09-01T16:30:00Z,27.9396,-96.8429,2.0,63.31638659,12.96027777,-99999.0,'11111222,11111222,99999999' 
TABS,ioos:station:wmo:42048:1,2006-09-01T17:00:00Z,27.9396,-96.8429,2.0,64.31981544,11.5842134,-99999.0,'11111222,11111222,99999999' 
TABS,ioos:station:wmo:42048:1,2006-09-01T17:30:00Z,27.9396,-96.8429,2.0,61.03814056,7.806234688,-99999.0,'11133222,11111222,99999999' 
TABS,ioos:station:wmo:42048:1,2006-09-01T18:00:00Z,27.9396,-96.8429,2.0,64.30636042,9.410462263,-99999.0,'11133222,11111222,99999999' 
TABS,ioos:station:wmo:42048:1,2006-09-01T18:30:00Z,27.9396,-96.8429,2.0,57.59284912,7.556910744,-99999.0,'11133222,11111222,99999999' 
TABS,ioos:station:wmo:42048:1,2006-09-01T19:00:00Z,27.9396,-96.8429,2.0,56.51873764,9.135972855,-99999.0,'11133222,11111222,99999999' 
TABS,ioos:station:wmo:42048:1,2006-09-01T19:30:00Z,27.9396,-96.8429,2.0,45.6837917,5.925976713,-99999.0,'11133222,11111222,99999999' 
TABS,ioos:station:wmo:42048:1,2006-09-01T20:00:00Z,27.9396,-96.8429,2.0,47.54787959,6.044667071,-99999.0,'11133222,11111222,99999999' 
TABS,ioos:station:wmo:42048:1,2006-09-01T20:30:00Z,27.9396,-96.8429,2.0,32.02186566,7.430585441,-99999.0,'11133222,11111222,99999999' 
TABS,ioos:station:wmo:42048:1,2006-09-01T21:00:00Z,27.9396,-96.8429,2.0,40.87057259,8.542815695,-99999.0,'11133222,11111222,99999999' 
TABS,ioos:station:wmo:42048:1,2006-09-01T21:30:00Z,27.9396,-96.8429,2.0,37.92598976,9.875677192,-99999.0,'11133222,11111222,99999999' 
TABS,ioos:station:wmo:42048:1,2006-09-01T22:00:00Z,27.9396,-96.8429,2.0,38.63426205,10.45895788,-99999.0,'11111222,11111222,99999999' 
TABS,ioos:station:wmo:42048:1,2006-09-01T22:30:00Z,27.9396,-96.8429,2.0,26.79622909,13.3091848,-99999.0,'11111222,11111222,99999999' 
TABS,ioos:station:wmo:42048:1,2006-09-01T23:00:00Z,27.9396,-96.8429,2.0,26.0652502,12.8131573,-99999.0,'11111222,11111222,99999999' 
TABS,ioos:station:wmo:42048:1,2006-09-01T23:30:00Z,27.9396,-96.8429,2.0,22.62002251,12.87,-99999.0,'11111222,11111222,99999999' 
TABS,ioos:station:wmo:42048:1,2006-09-02T00:00:00Z,27.9396,-96.8429,2.0,26.17754883,16.52492057,-99999.0,'11111222,11111222,99999999' 
TABS,ioos:station:wmo:42048:1,2006-09-02T00:30:00Z,27.9396,-96.8429,2.0,23.99855292,14.58037379,-99999.0,'11111222,11111222,99999999' 
TABS,ioos:station:wmo:42048:1,2006-09-02T01:00:00Z,27.9396,-96.8429,2.0,18.12101871,9.806370378,-99999.0,'11133222,11111222,99999999' 
TABS,ioos:station:wmo:42048:1,2006-09-02T01:30:00Z,27.9396,-96.8429,2.0,29.82777661,12.02269936,-99999.0,'11111222,11111222,99999999' 
TABS,ioos:station:wmo:42048:1,2006-09-02T02:00:00Z,27.9396,-96.8429,2.0,29.30543451,14.87344278,-99999.0,'11111222,11111222,99999999' 
TABS,ioos:station:wmo:42048:1,2006-09-02T02:30:00Z,27.9396,-96.8429,2.0,25.34090192,15.07006636,-99999.0,'11111222,11111222,99999999' 
TABS,ioos:station:wmo:42048:1,2006-09-02T03:00:00Z,27.9396,-96.8429,2.0,27.11667031,13.01004612,-99999.0,'11111222,11111222,99999999' 
TABS,ioos:station:wmo:42048:1,2006-09-02T03:30:00Z,27.9396,-96.8429,2.0,39.74027102,14.57828865,-99999.0,'11111222,11111222,99999999' 
TABS,ioos:station:wmo:42048:1,2006-09-02T04:00:00Z,27.9396,-96.8429,2.0,39.76562509,14.64870301,-99999.0,'11111222,11111222,99999999' 
TABS,ioos:station:wmo:42048:1,2006-09-02T04:30:00Z,27.9396,-96.8429,2.0,40.66890942,16.57241383,-99999.0,'11111222,11111222,99999999' 
TABS,ioos:station:wmo:42048:1,2006-09-02T05:00:00Z,27.9396,-96.8429,2.0,47.25504445,17.25262299,-99999.0,'11111222,11111222,99999999' 
TABS,ioos:station:wmo:42048:1,2006-09-02T05:30:00Z,27.9396,-96.8429,2.0,45.55100792,16.17935104,-99999.0,'11111222,11111222,99999999' 
TABS,ioos:station:wmo:42048:1,2006-09-02T06:00:00Z,27.9396,-96.8429,2.0,42.12507766,17.62206855,-99999.0,'11111222,11111222,99999999' 
TABS,ioos:station:wmo:42048:1,2006-09-02T06:30:00Z,27.9396,-96.8429,2.0,45.33467454,19.37505613,-99999.0,'11111222,11111222,99999999' 
TABS,ioos:station:wmo:42048:1,2006-09-02T07:00:00Z,27.9396,-96.8429,2.0,47.09535289,22.04818813,-99999.0,'11111222,11111222,99999999' 
TABS,ioos:station:wmo:42048:1,2006-09-02T07:30:00Z,27.9396,-96.8429,2.0,44.1746848,21.59728224,-99999.0,'11111222,11111222,99999999' 
TABS,ioos:station:wmo:42048:1,2006-09-02T08:00:00Z,27.9396,-96.8429,2.0,55.5956038,22.68900174,-99999.0,'11111222,11111222,99999999' 
TABS,ioos:station:wmo:42048:1,2006-09-02T08:30:00Z,27.9396,-96.8429,2.0,56.68161248,20.95424062,-99999.0,'11111222,11111222,99999999' 
TABS,ioos:station:wmo:42048:1,2006-09-02T09:00:00Z,27.9396,-96.8429,2.0,59.12651675,21.78720726,-99999.0,'11111222,11111222,99999999' 
TABS,ioos:station:wmo:42048:1,2006-09-02T09:30:00Z,27.9396,-96.8429,2.0,55.03745801,22.35438436,-99999.0,'11111222,11111222,99999999' 
TABS,ioos:station:wmo:42048:1,2006-09-02T10:00:00Z,27.9396,-96.8429,2.0,49.12208756,23.80622608,-99999.0,'11111222,11111222,99999999' 
TABS,ioos:station:wmo:42048:1,2006-09-02T10:30:00Z,27.9396,-96.8429,2.0,49.51590383,23.35044325,-99999.0,'11111222,11111222,99999999' 
TABS,ioos:station:wmo:42048:1,2006-09-02T11:00:00Z,27.9396,-96.8429,2.0,51.18749412,24.01180127,-99999.0,'11111222,11111222,99999999' 
TABS,ioos:station:wmo:42048:1,2006-09-02T11:30:00Z,27.9396,-96.8429,2.0,45.64484857,18.22329553,-99999.0,'11111222,11111222,99999999' 
TABS,ioos:station:wmo:42048:1,2006-09-02T12:00:00Z,27.9396,-96.8429,2.0,50.86714956,17.77786545,-99999.0,'11111222,11111222,99999999' 
TABS,ioos:station:wmo:42048:1,2006-09-02T12:30:00Z,27.9396,-96.8429,2.0,48.81707072,18.58864438,-99999.0,'11111222,11111222,99999999' 
TABS,ioos:station:wmo:42048:1,2006-09-02T13:00:00Z,27.9396,-96.8429,2.0,42.26815294,13.64853106,-99999.0,'11111222,11111222,99999999' 
TABS,ioos:station:wmo:42048:1,2006-09-02T13:30:00Z,27.9396,-96.8429,2.0,46.61968909,12.25905788,-99999.0,'11111222,11111222,99999999' 
TABS,ioos:station:wmo:42048:1,2006-09-02T14:00:00Z,27.9396,-96.8429,2.0,50.24313941,12.07132139,-99999.0,'11111222,11111222,99999999' 
TABS,ioos:station:wmo:42048:1,2006-09-02T14:30:00Z,27.9396,-96.8429,2.0,46.88828882,14.80778511,-99999.0,'11111222,11111222,99999999' 
TABS,ioos:station:wmo:42048:1,2006-09-02T15:00:00Z,27.9396,-96.8429,2.0,39.23601314,15.06684439,-99999.0,'11111222,11111222,99999999' 
TABS,ioos:station:wmo:42048:1,2006-09-02T15:30:00Z,27.9396,-96.8429,2.0,39.01646164,17.56832661,-99999.0,'11111222,11111222,99999999' 
TABS,ioos:station:wmo:42048:1,2006-09-02T16:00:00Z,27.9396,-96.8429,2.0,42.05557175,18.72061965,-99999.0,'11111222,11111222,99999999' 
TABS,ioos:station:wmo:42048:1,2006-09-02T16:30:00Z,27.9396,-96.8429,2.0,35.05451011,19.56982371,-99999.0,'11111222,11111222,99999999' 
TABS,ioos:station:wmo:42048:1,2006-09-02T17:00:00Z,27.9396,-96.8429,2.0,42.25932104,21.29413065,-99999.0,'11111222,11111222,99999999' 
TABS,ioos:station:wmo:42048:1,2006-09-02T17:30:00Z,27.9396,-96.8429,2.0,43.18984672,22.38403002,-99999.0,'11111222,11111222,99999999' 
TABS,ioos:station:wmo:42048:1,2006-09-02T18:00:00Z,27.9396,-96.8429,2.0,37.33185445,21.09068515,-99999.0,'11111222,11111222,99999999' 
TABS,ioos:station:wmo:42048:1,2006-09-02T18:30:00Z,27.9396,-96.8429,2.0,38.85806808,18.9674168,-99999.0,'11111222,11111222,99999999' 
TABS,ioos:station:wmo:42048:1,2006-09-02T19:00:00Z,27.9396,-96.8429,2.0,33.41715957,22.11614795,-99999.0,'11111222,11111222,99999999' 
TABS,ioos:station:wmo:42048:1,2006-09-02T19:30:00Z,27.9396,-96.8429,2.0,36.66860615,23.32614413,-99999.0,'11111222,11111222,99999999' 
TABS,ioos:station:wmo:42048:1,2006-09-02T20:00:00Z,27.9396,-96.8429,2.0,32.38301861,21.39758164,-99999.0,'11111222,11111222,99999999' 
TABS,ioos:station:wmo:42048:1,2006-09-02T20:30:00Z,27.9396,-96.8429,2.0,34.17983633,23.6921105,-99999.0,'11111222,11111222,99999999' 
TABS,ioos:station:wmo:42048:1,2006-09-02T21:00:00Z,27.9396,-96.8429,2.0,38.61090817,20.07926791,-99999.0,'11111222,11111222,99999999' 
TABS,ioos:station:wmo:42048:1,2006-09-02T21:30:00Z,27.9396,-96.8429,2.0,30.68968578,13.61714361,-99999.0,'11111222,11111222,99999999' 
TABS,ioos:station:wmo:42048:1,2006-09-02T22:00:00Z,27.9396,-96.8429,2.0,40.89226719,16.87957642,-99999.0,'11111222,11111222,99999999' 
TABS,ioos:station:wmo:42048:1,2006-09-02T22:30:00Z,27.9396,-96.8429,2.0,33.6227359,16.48847476,-99999.0,'11111222,11111222,99999999' 
TABS,ioos:station:wmo:42048:1,2006-09-02T23:00:00Z,27.9396,-96.8429,2.0,26.43982631,20.43771024,-99999.0,'11111222,11111222,99999999' 
TABS,ioos:station:wmo:42048:1,2006-09-02T23:30:00Z,27.9396,-96.8429,2.0,34.39967942,18.14286085,-99999.0,'11111222,11111222,99999999' 
TABS,ioos:station:wmo:42048:1,2006-09-03T00:00:00Z,27.9396,-96.8429,2.0,36.2360249,17.17105122,-99999.0,'11111222,11111222,99999999' 
TABS,ioos:station:wmo:42048:1,2006-09-03T00:30:00Z,27.9396,-96.8429,2.0,32.1046652,16.53917168,-99999.0,'11111222,11111222,99999999' 
TABS,ioos:station:wmo:42048:1,2006-09-03T01:00:00Z,27.9396,-96.8429,2.0,31.31181685,8.75516419,-99999.0,'11133222,11111222,99999999' 
TABS,ioos:station:wmo:42048:1,2006-09-03T01:30:00Z,27.9396,-96.8429,2.0,36.58199223,15.11819103,-99999.0,'11111222,11111222,99999999' 
TABS,ioos:station:wmo:42048:1,2006-09-03T02:00:00Z,27.9396,-96.8429,2.0,27.22215157,14.82163284,-99999.0,'11111222,11111222,99999999' 
TABS,ioos:station:wmo:42048:1,2006-09-03T02:30:00Z,27.9396,-96.8429,2.0,28.33632082,15.33780949,-99999.0,'11111222,11111222,99999999' 
TABS,ioos:station:wmo:42048:1,2006-09-03T03:00:00Z,27.9396,-96.8429,2.0,19.4901345,10.81998614,-99999.0,'11111222,11111222,99999999' 
TABS,ioos:station:wmo:42048:1,2006-09-03T03:30:00Z,27.9396,-96.8429,2.0,18.37874133,9.641789253,-99999.0,'11133222,11111222,99999999' 
TABS,ioos:station:wmo:42048:1,2006-09-03T04:00:00Z,27.9396,-96.8429,2.0,13.72511169,9.820412415,-99999.0,'11133222,11111222,99999999' 
TABS,ioos:station:wmo:42048:1,2006-09-03T04:30:00Z,27.9396,-96.8429,2.0,14.32503011,11.07431713,-99999.0,'11111222,11111222,99999999' 
TABS,ioos:station:wmo:42048:1,2006-09-03T05:00:00Z,27.9396,-96.8429,2.0,12.50966705,9.649067312,-99999.0,'11133222,11111222,99999999' 
TABS,ioos:station:wmo:42048:1,2006-09-03T05:30:00Z,27.9396,-96.8429,2.0,12.91334566,12.12668545,-99999.0,'11111222,11111222,99999999' 
TABS,ioos:station:wmo:42048:1,2006-09-03T06:00:00Z,27.9396,-96.8429,2.0,24.82185744,11.1720947,-99999.0,'11111222,11111222,99999999' 
TABS,ioos:station:wmo:42048:1,2006-09-03T06:30:00Z,27.9396,-96.8429,2.0,25.72649431,12.83193282,-99999.0,'11111222,11111222,99999999' 
TABS,ioos:station:wmo:42048:1,2006-09-03T07:00:00Z,27.9396,-96.8429,2.0,21.43760954,11.10851925,-99999.0,'11111222,11111222,99999999' 
TABS,ioos:station:wmo:42048:1,2006-09-03T07:30:00Z,27.9396,-96.8429,2.0,21.57968938,10.54943126,-99999.0,'11111222,11111222,99999999' 
TABS,ioos:station:wmo:42048:1,2006-09-03T08:00:00Z,27.9396,-96.8429,2.0,10.46615123,11.45050217,-99999.0,'11111222,11111222,99999999' 
TABS,ioos:station:wmo:42048:1,2006-09-03T08:30:00Z,27.9396,-96.8429,2.0,20.00320437,9.822550585,-99999.0,'11133222,11111222,99999999' 
TABS,ioos:station:wmo:42048:1,2006-09-03T09:00:00Z,27.9396,-96.8429,2.0,18.6073224,7.364977936,-99999.0,'11133222,11111222,99999999' 
TABS,ioos:station:wmo:42048:1,2006-09-03T09:30:00Z,27.9396,-96.8429,2.0,20.65907221,7.823042886,-99999.0,'11133222,11111222,99999999' 
TABS,ioos:station:wmo:42048:1,2006-09-03T10:00:00Z,27.9396,-96.8429,2.0,25.27787358,7.962411695,-99999.0,'11133222,11111222,99999999' 
TABS,ioos:station:wmo:42048:1,2006-09-03T10:30:00Z,27.9396,-96.8429,2.0,31.06176884,5.019770911,-99999.0,'11133222,11111222,99999999' 
TABS,ioos:station:wmo:42048:1,2006-09-03T11:00:00Z,27.9396,-96.8429,2.0,18.89301368,6.331082056,-99999.0,'11133222,11111222,99999999' 
TABS,ioos:station:wmo:42048:1,2006-09-03T11:30:00Z,27.9396,-96.8429,2.0,17.94059144,2.564702712,-99999.0,'11133222,11111222,99999999' 
TABS,ioos:station:wmo:42048:1,2006-09-03T12:00:00Z,27.9396,-96.8429,2.0,29.05474662,5.765552879,-99999.0,'11133222,11111222,99999999' 
TABS,ioos:station:wmo:42048:1,2006-09-03T12:30:00Z,27.9396,-96.8429,2.0,10.30503283,5.366563146,-99999.0,'11133222,11111222,99999999' 
TABS,ioos:station:wmo:42048:1,2006-09-03T13:00:00Z,27.9396,-96.8429,2.0,7.845409932,4.835255939,-99999.0,'11133222,11111222,99999999' 
TABS,ioos:station:wmo:42048:1,2006-09-03T13:30:00Z,27.9396,-96.8429,2.0,17.12821788,4.991372557,-99999.0,'11133222,11111222,99999999' 
TABS,ioos:station:wmo:42048:1,2006-09-03T14:00:00Z,27.9396,-96.8429,2.0,10.83026468,3.512563167,-99999.0,'11133222,11111222,99999999' 
TABS,ioos:station:wmo:42048:1,2006-09-03T14:30:00Z,27.9396,-96.8429,2.0,18.52101663,4.21848314,-99999.0,'11133222,11111222,99999999' 
TABS,ioos:station:wmo:42048:1,2006-09-03T15:00:00Z,27.9396,-96.8429,2.0,355.9692616,2.987390165,-99999.0,'11133222,11111222,99999999' 
TABS,ioos:station:wmo:42048:1,2006-09-03T15:30:00Z,27.9396,-96.8429,2.0,37.31614137,1.798054504,-99999.0,'11133222,11111222,99999999' 
TABS,ioos:station:wmo:42048:1,2006-09-03T16:00:00Z,27.9396,-96.8429,2.0,76.50429828,1.285496013,-99999.0,'11133222,11111222,99999999' 
TABS,ioos:station:wmo:42048:1,2006-09-03T16:30:00Z,27.9396,-96.8429,2.0,37.99073736,1.738332534,-99999.0,'11133222,11111222,99999999' 
TABS,ioos:station:wmo:42048:1,2006-09-03T17:00:00Z,27.9396,-96.8429,2.0,97.28678607,3.074833329,-99999.0,'11133222,11111222,99999999' 
TABS,ioos:station:wmo:42048:1,2006-09-03T17:30:00Z,27.9396,-96.8429,2.0,316.1694523,1.386217876,-99999.0,'11133222,11111222,99999999' 
TABS,ioos:station:wmo:42048:1,2006-09-03T18:00:00Z,27.9396,-96.8429,2.0,15.06866338,1.615549442,-99999.0,'11133222,11111222,99999999' 
TABS,ioos:station:wmo:42048:1,2006-09-03T18:30:00Z,27.9396,-96.8429,2.0,355.8153041,0.822192192,-99999.0,'11133222,11111222,99999999' 
TABS,ioos:station:wmo:42048:1,2006-09-03T19:00:00Z,27.9396,-96.8429,2.0,36.37796188,3.72613741,-99999.0,'11133222,11111222,99999999' 
TABS,ioos:station:wmo:42048:1,2006-09-03T19:30:00Z,27.9396,-96.8429,2.0,312.4503726,1.748284874,-99999.0,'11133222,11111222,99999999' 
TABS,ioos:station:wmo:42048:1,2006-09-03T20:00:00Z,27.9396,-96.8429,2.0,266.9221309,1.862686232,-99999.0,'11133222,11111222,99999999' 
TABS,ioos:station:wmo:42048:1,2006-09-03T20:30:00Z,27.9396,-96.8429,2.0,292.0875409,3.723237838,-99999.0,'11133222,11111222,99999999' 
TABS,ioos:station:wmo:42048:1,2006-09-03T21:00:00Z,27.9396,-96.8429,2.0,290.9908549,2.624137954,-99999.0,'11133222,11111222,99999999' 
TABS,ioos:station:wmo:42048:1,2006-09-03T21:30:00Z,27.9396,-96.8429,2.0,292.0135271,6.029568807,-99999.0,'11133222,11111222,99999999' 
TABS,ioos:station:wmo:42048:1,2006-09-03T22:00:00Z,27.9396,-96.8429,2.0,295.3781054,6.04315315,-99999.0,'11133222,11111222,99999999' 
TABS,ioos:station:wmo:42048:1,2006-09-03T22:30:00Z,27.9396,-96.8429,2.0,292.2389666,4.623948529,-99999.0,'11133222,11111222,99999999' 
TABS,ioos:station:wmo:42048:1,2006-09-03T23:00:00Z,27.9396,-96.8429,2.0,306.8844426,8.064000248,-99999.0,'11133222,11111222,99999999' 
TABS,ioos:station:wmo:42048:1,2006-09-03T23:30:00Z,27.9396,-96.8429,2.0,292.1537139,6.046354273,-99999.0,'11133222,11111222,99999999' 
TABS,ioos:station:wmo:42048:1,2006-09-04T00:00:00Z,27.9396,-96.8429,2.0,272.9878874,5.948083725,-99999.0,'11133222,11111222,99999999' 
TABS,ioos:station:wmo:42048:1,2006-09-04T00:30:00Z,27.9396,-96.8429,2.0,274.7258098,4.976916716,-99999.0,'11133222,11111222,99999999' 
TABS,ioos:station:wmo:42048:1,2006-09-04T01:00:00Z,27.9396,-96.8429,2.0,257.195343,3.835374819,-99999.0,'11133222,11111222,99999999' 
TABS,ioos:station:wmo:42048:1,2006-09-04T01:30:00Z,27.9396,-96.8429,2.0,267.0422854,2.713613827,-99999.0,'11133222,11111222,99999999' 
TABS,ioos:station:wmo:42048:1,2006-09-04T02:00:00Z,27.9396,-96.8429,2.0,320.5602499,1.605615147,-99999.0,'11133222,11111222,99999999' 
TABS,ioos:station:wmo:42048:1,2006-09-04T02:30:00Z,27.9396,-96.8429,2.0,256.9559172,3.500314272,-99999.0,'11133222,11111222,99999999' 
TABS,ioos:station:wmo:42048:1,2006-09-04T03:00:00Z,27.9396,-96.8429,2.0,270.2035961,2.82001773,-99999.0,'11133222,11111222,99999999' 
TABS,ioos:station:wmo:42048:1,2006-09-04T03:30:00Z,27.9396,-96.8429,2.0,259.0992864,4.389191269,-99999.0,'11133222,11111222,99999999' 
TABS,ioos:station:wmo:42048:1,2006-09-04T04:00:00Z,27.9396,-96.8429,2.0,292.2493925,1.426183719,-99999.0,'11133222,11111222,99999999' 
TABS,ioos:station:wmo:42048:1,2006-09-04T04:30:00Z,27.9396,-96.8429,2.0,267.8586827,1.070747403,-99999.0,'11133222,11111222,99999999' 
TABS,ioos:station:wmo:42048:1,2006-09-04T05:00:00Z,27.9396,-96.8429,2.0,301.5879894,1.890026455,-99999.0,'11133222,11111222,99999999' 
TABS,ioos:station:wmo:42048:1,2006-09-04T05:30:00Z,27.9396,-96.8429,2.0,281.7255055,3.247768465,-99999.0,'11133222,11111222,99999999' 
TABS,ioos:station:wmo:42048:1,2006-09-04T06:00:00Z,27.9396,-96.8429,2.0,248.1982206,3.985021957,-99999.0,'11133222,11111222,99999999' 
TABS,ioos:station:wmo:42048:1,2006-09-04T06:30:00Z,27.9396,-96.8429,2.0,226.5014733,1.888623838,-99999.0,'11133222,11111222,99999999' 
TABS,ioos:station:wmo:42048:1,2006-09-04T07:00:00Z,27.9396,-96.8429,2.0,244.6534624,2.522855525,-99999.0,'11133222,11111222,99999999' 
TABS,ioos:station:wmo:42048:1,2006-09-04T07:30:00Z,27.9396,-96.8429,2.0,213.7587676,4.606788469,-99999.0,'11133222,11111222,99999999' 
TABS,ioos:station:wmo:42048:1,2006-09-04T08:00:00Z,27.9396,-96.8429,2.0,221.0350389,2.863564213,-99999.0,'11133222,11111222,99999999' 
TABS,ioos:station:wmo:42048:1,2006-09-04T08:30:00Z,27.9396,-96.8429,2.0,223.1577333,4.619794368,-99999.0,'11133222,11111222,99999999' 
TABS,ioos:station:wmo:42048:1,2006-09-04T09:00:00Z,27.9396,-96.8429,2.0,259.6378594,4.503443127,-99999.0,'11133222,11111222,99999999' 
TABS,ioos:station:wmo:42048:1,2006-09-04T09:30:00Z,27.9396,-96.8429,2.0,233.5227956,5.248123474,-99999.0,'11133222,11111222,99999999' 
TABS,ioos:station:wmo:42048:1,2006-09-04T10:00:00Z,27.9396,-96.8429,2.0,230.0237478,3.875693486,-99999.0,'11133222,11111222,99999999' 
TABS,ioos:station:wmo:42048:1,2006-09-04T10:30:00Z,27.9396,-96.8429,2.0,248.2507854,4.048160076,-99999.0,'11133222,11111222,99999999' 
TABS,ioos:station:wmo:42048:1,2006-09-04T11:00:00Z,27.9396,-96.8429,2.0,219.7044838,2.911563154,-99999.0,'11133222,11111222,99999999' 
TABS,ioos:station:wmo:42048:1,2006-09-04T11:30:00Z,27.9396,-96.8429,2.0,288.090868,1.57800507,-99999.0,'11133222,11111222,99999999' 
TABS,ioos:station:wmo:42048:1,2006-09-04T12:00:00Z,27.9396,-96.8429,2.0,340.2675671,0.977394496,-99999.0,'11133222,11111222,99999999' 
TABS,ioos:station:wmo:42048:1,2006-09-04T12:30:00Z,27.9396,-96.8429,2.0,191.8784622,2.963460815,-99999.0,'11133222,11111222,99999999' 
TABS,ioos:station:wmo:42048:1,2006-09-04T13:00:00Z,27.9396,-96.8429,2.0,198.5678375,4.082511482,-99999.0,'11133222,11111222,99999999' 
TABS,ioos:station:wmo:42048:1,2006-09-04T13:30:00Z,27.9396,-96.8429,2.0,214.5276805,3.034534561,-99999.0,'11133222,11111222,99999999' 
TABS,ioos:station:wmo:42048:1,2006-09-04T14:00:00Z,27.9396,-96.8429,2.0,243.9416179,2.526855754,-99999.0,'11133222,11111222,99999999' 
TABS,ioos:station:wmo:42048:1,2006-09-04T14:30:00Z,27.9396,-96.8429,2.0,273.3953365,1.182074448,-99999.0,'11133222,11111222,99999999' 
TABS,ioos:station:wmo:42048:1,2006-09-04T15:00:00Z,27.9396,-96.8429,2.0,262.9020198,2.589845555,-99999.0,'11133222,11111222,99999999' 
TABS,ioos:station:wmo:42048:1,2006-09-04T15:30:00Z,27.9396,-96.8429,2.0,256.1220817,0.875556966,-99999.0,'11133222,11111222,99999999' 
TABS,ioos:station:wmo:42048:1,2006-09-04T16:00:00Z,27.9396,-96.8429,2.0,229.6351369,3.412345235,-99999.0,'11133222,11111222,99999999' 